Previsão horária em Jurgi

Hoje, 22 Junho, Terça-feira

Tempo Temperatura Precipitação Vento Pressão Humidade
00:00 +21°C° 0 mm 2 m/s 744 mmHg 84%
01:00 +20°C° 0 mm 2 m/s 743 mmHg 87%
02:00 +20°C° 0 mm 2 m/s 743 mmHg 89%
03:00 +20°C° 0 mm 2 m/s 744 mmHg 91%
04:00 +19°C° 0 mm 2 m/s 744 mmHg 93%
05:00 +21°C° 0 mm 2 m/s 744 mmHg 86%
06:00 +24°C° 0 mm 3 m/s 744 mmHg 79%
07:00 +26°C° 0 mm 3 m/s 744 mmHg 71%
08:00 +27°C° 0 mm 3 m/s 744 mmHg 66%
09:00 +28°C° 0 mm 3 m/s 744 mmHg 61%
10:00 +30°C° 0 mm 3 m/s 745 mmHg 56%
11:00 +30°C° 0.1 mm 3 m/s 745 mmHg 55%
12:00 +30°C° 0.1 mm 2 m/s 745 mmHg 54%
13:00 +30°C° 0.1 mm 2 m/s 745 mmHg 53%
14:00 +30°C° 0.3 mm 2 m/s 745 mmHg 57%
15:00 +29°C° 0.3 mm 2 m/s 745 mmHg 61%
16:00 +28°C° 0.3 mm 3 m/s 745 mmHg 66%
17:00 +26°C° 2 mm 3 m/s 745 mmHg 75%
18:00 +24°C° 2 mm 3 m/s 746 mmHg 85%
19:00 +20°C° 2 mm 3 m/s 746 mmHg 94%
20:00 +20°C° 0.9 mm 3 m/s 747 mmHg 95%
21:00 +19°C° 0.9 mm 3 m/s 747 mmHg 97%
22:00 +19°C° 0.9 mm 3 m/s 747 mmHg 98%
23:00 +18°C° 0 mm 3 m/s 747 mmHg 97%

Amanhã, 23 Junho, Quarta-feira

Tempo Temperatura Precipitação Vento Pressão Humidade
00:00 +17°C° 0 mm 3 m/s 747 mmHg 97%
01:00 +17°C° 0 mm 3 m/s 748 mmHg 97%
02:00 +16°C° 0 mm 3 m/s 748 mmHg 96%
03:00 +16°C° 0 mm 3 m/s 748 mmHg 96%
04:00 +16°C° 0 mm 3 m/s 748 mmHg 96%
05:00 +17°C° 0.1 mm 3 m/s 748 mmHg 91%
06:00 +18°C° 0.1 mm 3 m/s 749 mmHg 86%
07:00 +19°C° 0.1 mm 3 m/s 749 mmHg 81%
08:00 +20°C° 0.1 mm 3 m/s 749 mmHg 77%
09:00 +21°C° 0.1 mm 3 m/s 749 mmHg 72%
10:00 +24°C° 0.1 mm 2 m/s 750 mmHg 68%
11:00 +25°C° 0 mm 2 m/s 750 mmHg 65%
12:00 +26°C° 0 mm 3 m/s 750 mmHg 62%
13:00 +27°C° 0 mm 3 m/s 750 mmHg 59%
14:00 +27°C° 0 mm 3 m/s 750 mmHg 59%
15:00 +27°C° 0 mm 3 m/s 750 mmHg 60%
16:00 +27°C° 0 mm 3 m/s 750 mmHg 60%
17:00 +26°C° 0.1 mm 3 m/s 750 mmHg 67%
18:00 +24°C° 0.1 mm 3 m/s 750 mmHg 74%
19:00 +22°C° 0.1 mm 3 m/s 750 mmHg 80%
20:00 +21°C° 0.1 mm 3 m/s 750 mmHg 83%
21:00 +20°C° 0.1 mm 2 m/s 750 mmHg 85%
22:00 +18°C° 0.1 mm 2 m/s 750 mmHg 88%
23:00 +18°C° 0.1 mm 2 m/s 750 mmHg 88%

Depois de amanhã, 24 Junho, Quinta-feira

Tempo Temperatura Precipitação Vento Pressão Humidade
00:00 +17°C° 0.1 mm 2 m/s 750 mmHg 89%
01:00 +16°C° 0.1 mm 2 m/s 750 mmHg 90%
02:00 +16°C° 0.3 mm 2 m/s 750 mmHg 91%
03:00 +16°C° 0.3 mm 2 m/s 750 mmHg 91%
04:00 +15°C° 0.3 mm 2 m/s 750 mmHg 92%
05:00 +17°C° 0.2 mm 2 m/s 750 mmHg 86%
06:00 +18°C° 0.2 mm 2 m/s 750 mmHg 79%
07:00 +19°C° 0.2 mm 2 m/s 750 mmHg 73%
08:00 +21°C° 0.1 mm 2 m/s 750 mmHg 67%
09:00 +24°C° 0.1 mm 2 m/s 750 mmHg 61%
10:00 +25°C° 0.1 mm 2 m/s 750 mmHg 55%
11:00 +26°C° 0.1 mm 2 m/s 750 mmHg 54%
12:00 +27°C° 0.1 mm 2 m/s 750 mmHg 53%
13:00 +28°C° 0.1 mm 2 m/s 750 mmHg 52%
14:00 +28°C° 0 mm 2 m/s 750 mmHg 53%
15:00 +28°C° 0 mm 2 m/s 749 mmHg 54%
16:00 +28°C° 0 mm 2 m/s 749 mmHg 55%
17:00 +27°C° 0 mm 2 m/s 749 mmHg 62%
18:00 +25°C° 0 mm 2 m/s 749 mmHg 69%
19:00 +24°C° 0 mm 3 m/s 749 mmHg 76%
20:00 +21°C° 0 mm 3 m/s 749 mmHg 82%
21:00 +20°C° 0 mm 3 m/s 749 mmHg 88%
22:00 +18°C° 0 mm 3 m/s 748 mmHg 95%
23:00 +18°C° 0.1 mm 3 m/s 748 mmHg 94%

25 Junho, Sexta-feira

Tempo Temperatura Precipitação Vento Pressão Humidade
00:00 +17°C° 0.1 mm 3 m/s 748 mmHg 94%
01:00 +17°C° 0.1 mm 3 m/s 747 mmHg 93%
02:00 +17°C° 0 mm 3 m/s 747 mmHg 92%
03:00 +17°C° 0 mm 3 m/s 747 mmHg 90%
04:00 +17°C° 0 mm 3 m/s 746 mmHg 89%
05:00 +17°C° 2.9 mm 3 m/s 746 mmHg 91%
06:00 +18°C° 2.9 mm 3 m/s 746 mmHg 94%
07:00 +19°C° 2.9 mm 3 m/s 746 mmHg 97%
08:00 +21°C° 0.5 mm 3 m/s 746 mmHg 91%
09:00 +24°C° 0.5 mm 3 m/s 745 mmHg 85%
10:00 +26°C° 0.5 mm 3 m/s 745 mmHg 79%
11:00 +26°C° 0.2 mm 3 m/s 745 mmHg 80%
12:00 +26°C° 0.2 mm 3 m/s 745 mmHg 82%
13:00 +26°C° 0.2 mm 2 m/s 745 mmHg 84%
14:00 +25°C° 0.1 mm 3 m/s 745 mmHg 82%
15:00 +25°C° 0.1 mm 4 m/s 745 mmHg 80%
16:00 +25°C° 0.1 mm 5 m/s 745 mmHg 78%
17:00 +22°C° 0 mm 5 m/s 745 mmHg 83%
18:00 +20°C° 0 mm 5 m/s 746 mmHg 88%
19:00 +18°C° 0 mm 4 m/s 746 mmHg 93%
20:00 +17°C° 0 mm 4 m/s 746 mmHg 93%
21:00 +17°C° 0 mm 4 m/s 747 mmHg 93%
22:00 +15°C° 0 mm 4 m/s 747 mmHg 92%
23:00 +15°C° 0 mm 4 m/s 747 mmHg 91%

26 Junho, Sábado

Tempo Temperatura Precipitação Vento Pressão Humidade
00:00 +15°C° 0 mm 4 m/s 747 mmHg 90%
01:00 +15°C° 0 mm 4 m/s 747 mmHg 90%
02:00 +15°C° 0 mm 4 m/s 747 mmHg 91%
03:00 +14°C° 0 mm 3 m/s 747 mmHg 91%
04:00 +14°C° 0 mm 3 m/s 747 mmHg 92%
05:00 +15°C° 0 mm 4 m/s 747 mmHg 88%
06:00 +17°C° 0 mm 4 m/s 747 mmHg 84%
07:00 +17°C° 0 mm 5 m/s 748 mmHg 80%
08:00 +17°C° 0 mm 5 m/s 748 mmHg 78%
09:00 +19°C° 0 mm 5 m/s 748 mmHg 76%
10:00 +20°C° 0 mm 5 m/s 748 mmHg 74%
11:00 +20°C° 0.1 mm 5 m/s 748 mmHg 71%
12:00 +21°C° 0.1 mm 5 m/s 748 mmHg 69%
13:00 +22°C° 0.1 mm 5 m/s 748 mmHg 66%
14:00 +22°C° 0 mm 5 m/s 748 mmHg 65%
15:00 +22°C° 0 mm 5 m/s 748 mmHg 64%
16:00 +22°C° 0 mm 5 m/s 748 mmHg 63%
17:00 +21°C° 0 mm 4 m/s 748 mmHg 68%
18:00 +20°C° 0 mm 3 m/s 748 mmHg 73%
19:00 +19°C° 0 mm 2 m/s 748 mmHg 78%
20:00 +18°C° 0 mm 2 m/s 748 mmHg 83%
21:00 +17°C° 0 mm 2 m/s 749 mmHg 88%
22:00 +16°C° 0 mm 2 m/s 749 mmHg 93%
23:00 +15°C° 0 mm 2 m/s 749 mmHg 93%

27 Junho, Domingo

Tempo Temperatura Precipitação Vento Pressão Humidade
00:00 +15°C° 0 mm 2 m/s 749 mmHg 93%
01:00 +15°C° 0 mm 1 m/s 749 mmHg 93%
02:00 +14°C° 0 mm 1 m/s 749 mmHg 94%
03:00 +14°C° 0 mm 1 m/s 749 mmHg 94%
04:00 +14°C° 0 mm 1 m/s 749 mmHg 95%
05:00 +16°C° 0 mm 2 m/s 749 mmHg 87%
06:00 +17°C° 0 mm 2 m/s 749 mmHg 78%
07:00 +19°C° 0 mm 2 m/s 750 mmHg 70%
08:00 +20°C° 0 mm 2 m/s 750 mmHg 67%
09:00 +23°C° 0 mm 2 m/s 750 mmHg 63%
10:00 +24°C° 0 mm 3 m/s 750 mmHg 59%
11:00 +24°C° 0 mm 3 m/s 750 mmHg 58%
12:00 +25°C° 0 mm 3 m/s 750 mmHg 58%
13:00 +25°C° 0 mm 3 m/s 750 mmHg 57%
14:00 +24°C° 0.1 mm 2 m/s 750 mmHg 62%
15:00 +23°C° 0.1 mm 2 m/s 750 mmHg 67%
16:00 +23°C° 0.1 mm 2 m/s 750 mmHg 72%
17:00 +21°C° 0.1 mm 2 m/s 749 mmHg 76%
18:00 +21°C° 0.1 mm 1 m/s 749 mmHg 79%
19:00 +21°C° 0.1 mm 1 m/s 749 mmHg 83%
20:00 +20°C° 0 mm 1 m/s 750 mmHg 84%
21:00 +20°C° 0 mm 1 m/s 750 mmHg 84%
22:00 +19°C° 0 mm 1 m/s 750 mmHg 84%
23:00 +19°C° 0 mm 1 m/s 749 mmHg 85%
Mostrar mais

Necessitamos do seu Consentimento

A Meteoprog e os seus Fornecedores de Serviços podem armazenar e aceder a dados pessoais como cookies, identificadores do dispositivo ou outras tecnologias semelhantes existentes no seu dispositivo e processar estes dados para personalizar conteúdos e anúncios, assim como funcionalidades nas redes sociais e análise de tráfego.

  • Armazenar e/ou aceder a informações no seu dispositivo

    Os cookies, identificadores do dispositivo ou outras informações podem ser armazenados ou acedidos no seu dispositivo, para os fins acima indicados.

  • Anúncios e conteúdos personalizados, medição de anúncios e conteúdos, dados sobre o público-alvo e desenvolvimento de produtos

    Os anúncios e os conteúdos podem ser personalizados com base num perfil. Podem ser adicionados dados adicionais para uma maior personalização dos anúncios e dos conteúdos. A eficácia dos anúncios e dos conteúdos pode ser medida. Podem ser obtidas informações sobre o público que visualizou os anúncios e os conteúdos. Estes dados podem ser usados para desenvolver ou melhorar sistemas, softwares ou a experiência do utilizador.

Ao clicar em "Eu concordo”, permitirá o uso de cookies, identificadores do dispositivo e web beacons mencionados ou outras tecnologias semelhantes. As configurações do navegador do seu dispositivo podem ser alteradas.

Para certos fins, podem ser invocados interesses legítimos ao invés de consentimento. Pode ler mais informação sobre este assunto na nossa Política de Privacidade e Cookies.